Regional Weather Roundup
Issued by NWS

Home | Current Version | Previous Version | Graphics & Text | Print | Product List | Glossary Off
Versions: 1 2 3 4 5 6 7 8 9 10 11 12 13 14 15 16 17 18 19 20 21 22 23 24 25 26 27 28 29 30 31 32 33 34 35 36 37 38 39 40 41 42 43 44 45 46 47 48 49 50

000
ASUS43 KFSD 020310
RWRSD

WEATHER ROUNDUP FOR SOUTH DAKOTA
NATIONAL WEATHER SERVICE SIOUX FALLS SD
1000 PM CDT MON JUN 01 2015

NOTE: "FAIR" INDICATES FEW OR NO CLOUDS BELOW 12,000 FEET WITH NO
SIGNIFICANT WEATHER AND/OR OBSTRUCTIONS TO VISIBILITY.


SDZ001>005-009-010-012>017-020400-
NORTHWEST AND NORTH CENTRAL SOUTH DAKOTA

CITY           SKY/WX    TMP DP  RH WIND       PRES   REMARKS
BUFFALO          N/A     72  61  68 E12       29.70F
FAITH            N/A     74  60  61 SE15      29.78F
MOBRIDGE       CLEAR     73  63  70 SE15      29.78F
$$

SDZ012>016-024>037-041>051-057-063-072>074-020400-
SOUTHWEST AND SOUTH CENTRAL SOUTH DAKOTA

CITY           SKY/WX    TMP DP  RH WIND       PRES   REMARKS
RAPID CTY ARPT CLOUDY    74  59  59 E18G24    29.84R
PIERRE         CLOUDY    71  61  70 SE10      29.82F
CUSTER         CLOUDY    66  43  43 SW6       29.99S
ELLSWORTH AFB  TSTM      70  57  64 S24       29.82
PHILIP         CLOUDY    76  61  59 S14       29.81S
PINE RIDGE     CLOUDY    71  55  56 SW8       29.89R
SPEARFISH      FAIR      73  54  49 S13G23    29.83S
WINNER         FAIR      74  59  59 S17       29.90R
$$

SDZ004>011-016>023-039-040-020400-
NORTHEAST SOUTH DAKOTA

CITY           SKY/WX    TMP DP  RH WIND       PRES   REMARKS
ABERDEEN       CLEAR     71  57  61 S13       29.88R
WATERTOWN      CLEAR     68  49  50 S14       29.95S
BROOKINGS      CLEAR     70  48  46 S14       29.99S
SISSETON         N/A     68  50  52 S12       29.92S
$$

SDZ017-020-022-023-036>040-048>070-020400-
SOUTHEAST SOUTH DAKOTA

CITY           SKY/WX    TMP DP  RH WIND       PRES   REMARKS
SIOUX FALLS    PTCLDY    69  48  47 S16G23    30.00S
HURON          CLEAR     72  54  53 S15G22    29.90S
CHAMBERLAIN    PTCLDY    68  60  75 SE10      29.90R
MITCHELL       PTCLDY    72  53  51 S16       29.93S
YANKTON        CLEAR     70  50  49 SE16      29.97F
$$

ABBREVIATIONS USED IN REMARKS
   TC - TEMPERATURE IN CELSIUS
  WCI - WIND CHILL INDEX
   HX - HEAT INDEX
  VSB - VISIBILITY




USA.gov is the U.S. government's official web portal to all federal, state and local government web resources and services.